Weather History for Fayetteville, NC

Change the Weather History Date:

Saturday, February 16, 2013

  Actual Average Record
Temperature  
Mean Temperature 40 °F 47 °F  
Max Temperature 47 °F 59 °F 82 °F (1989)
Min Temperature 33 °F 35 °F 17 °F (1991)
Degree Days  
Heating Degree Days 25 18  
Month to date heating degree days 295 303  
Since 1 July heating degree days 1844 2029  
Cooling Degree Days 0 0  
Month to date cooling degree days 0 0  
Year to date cooling degree days 5 2  
Moisture  
Dew Point 33 °F    
Average Humidity 77    
Maximum Humidity 96    
Minimum Humidity 58    
Precipitation  
Precipitation 0.23 in 0.11 in 1.62 in (1922)
Month to date precipitation 2.05 1.52  
Year to date precipitation 3.85 4.82  
Sea Level Pressure  
Sea Level Pressure 29.87 in    
Wind  
Wind Speed 9 mph (NNW)    
Max Wind Speed 17 mph    
Max Gust Speed 22 mph    
Visibility 7 miles    
Events Rain , Snow    
T = Trace of Precipitation, MM = Missing Value Source: NWS Daily Summary

Daily Weather History Graph

Daily Weather History Graph

Search for Another Location

Airport:

Trip Planner

Search our weather history database for the weather conditions in past years. The results will help you decide how hot, cold, wet, or windy it might be!

Date:

Astronomy

Feb. 16, 2013 Rise Set
Actual Time 7:00 AM EST 5:59 PM EST
Civil Twilight 6:34 AM EST 6:25 PM EST
Nautical Twilight 6:04 AM EST 6:54 PM EST
Astronomical Twilight 5:35 AM EST 7:24 PM EST
Moon 10:28 AM EST (2/16) No Moon Set
Length of Visible Light 11h 51m
Length of Day
10h 59m
Waxing Crescent, 39% of the Moon is Illuminated
Feb 16
Waxing Crescent
Feb 17
First Quarter
Feb 25
Full
Mar 4
Last Quarter
Mar 11
New

Hourly Weather History & Observations

Time (EST) Temp. Windchill Dew Point Humidity Pressure Visibility Wind Dir Wind Speed Gust Speed Precip Events Conditions
12:53 AM 42.1 °F 39.2 °F 36.0 °F 79% 29.91 in 10.0 mi South 4.6 mph - N/A   Clear
1:53 AM 46.0 °F 43.9 °F 37.9 °F 73% 29.93 in 10.0 mi NNW 4.6 mph - N/A   Overcast
2:53 AM 46.0 °F 40.2 °F 36.0 °F 68% 29.93 in 10.0 mi NNE 12.7 mph - N/A   Overcast
3:53 AM 45.0 °F 41.8 °F 35.1 °F 68% 29.92 in 10.0 mi North 5.8 mph - N/A   Overcast
4:53 AM 45.0 °F 39.7 °F 34.0 °F 65% 29.90 in 10.0 mi North 10.4 mph - N/A   Overcast
5:53 AM 44.1 °F 39.0 °F 33.1 °F 65% 29.88 in 10.0 mi North 9.2 mph - N/A   Overcast
6:53 AM 43.0 °F 38.2 °F 33.1 °F 68% 29.88 in 10.0 mi North 8.1 mph - N/A   Overcast
7:53 AM 44.1 °F 39.5 °F 32.0 °F 63% 29.91 in 10.0 mi NNW 8.1 mph - N/A   Overcast
8:53 AM 46.0 °F 39.6 °F 32.0 °F 58% 29.90 in 10.0 mi North 15.0 mph - N/A   Overcast
9:13 AM 44.6 °F 38.1 °F 32.0 °F 61% 29.92 in 10.0 mi North 13.8 mph - N/A   Overcast
9:53 AM 45.0 °F 38.5 °F 32.0 °F 60% 29.90 in 10.0 mi North 13.8 mph 19.6 mph N/A   Overcast
10:53 AM 43.0 °F 36.4 °F 34.0 °F 71% 29.88 in 10.0 mi North 12.7 mph - N/A   Overcast
11:53 AM 39.0 °F 31.4 °F 35.1 °F 86% 29.88 in 10.0 mi North 12.7 mph - 0.00 in Rain Light Rain
12:11 PM 37.4 °F 29.8 °F 35.6 °F 93% 29.88 in 6.0 mi NNW 11.5 mph - 0.01 in Rain Light Rain
12:53 PM 36.0 °F 28.5 °F 34.0 °F 93% 29.86 in 4.0 mi NNW 10.4 mph - 0.05 in Snow Light Snow
1:03 PM 35.6 °F 28.0 °F 33.8 °F 93% 29.87 in 2.0 mi NNW 10.4 mph - 0.02 in Snow Light Snow
1:13 PM 33.8 °F 26.4 °F 32.0 °F 93% 29.86 in 1.2 mi NNW 9.2 mph - 0.03 in Snow Light Snow
1:31 PM 33.8 °F 27.0 °F 33.8 °F 100% 29.86 in 2.0 mi NNW 8.1 mph - 0.04 in Snow Light Snow
1:40 PM 33.8 °F 26.4 °F 32.0 °F 93% 29.85 in 1.2 mi NNW 9.2 mph - 0.05 in Snow Light Snow
1:53 PM 34.0 °F 26.6 °F 32.0 °F 92% 29.83 in 0.8 mi NNW 9.2 mph - 0.06 in Snow Light Snow
2:53 PM 33.1 °F 27.7 °F 32.0 °F 96% 29.83 in 0.8 mi NNW 5.8 mph - 0.06 in Snow Light Snow
2:55 PM 33.8 °F 28.6 °F 32.0 °F 93% 29.84 in 1.2 mi NNW 5.8 mph - 0.00 in Snow Light Snow
3:53 PM 34.0 °F 27.2 °F 32.0 °F 92% 29.83 in 1.8 mi NW 8.1 mph - 0.04 in Snow Light Snow
3:59 PM 33.8 °F 27.7 °F 32.0 °F 93% 29.84 in 2.0 mi NW 6.9 mph - 0.00 in Snow Light Snow
4:25 PM 33.8 °F 28.6 °F 33.8 °F 100% 29.83 in 2.0 mi NNW 5.8 mph - 0.01 in Snow Light Snow
4:37 PM 33.8 °F 28.6 °F 32.0 °F 93% 29.83 in 1.5 mi North 5.8 mph - 0.02 in Snow Light Snow
4:47 PM 33.8 °F 27.7 °F 32.0 °F 93% 29.83 in 3.0 mi North 6.9 mph - 0.02 in Snow Light Snow
4:48 PM 34.0 °F 28.0 °F 32.0 °F 92% 29.82 in 3.0 mi North 6.9 mph - 0.02 in Snow Light Snow
5:53 PM 35.1 °F 28.6 °F 33.1 °F 92% 29.83 in 10.0 mi NW 8.1 mph - 0.00 in   Overcast
6:53 PM 35.1 °F 29.3 °F 33.1 °F 92% 29.84 in 10.0 mi North 6.9 mph - N/A   Overcast
6:58 PM 35.6 °F 29.2 °F 33.8 °F 93% 29.85 in 10.0 mi NNW 8.1 mph - N/A   Overcast
7:12 PM 35.6 °F 29.9 °F 33.8 °F 93% 29.86 in 10.0 mi NNW 6.9 mph - N/A   Overcast
7:36 PM 35.6 °F 28.6 °F 33.8 °F 93% 29.86 in 10.0 mi NNW 9.2 mph - N/A   Overcast
7:53 PM 35.1 °F 29.3 °F 33.1 °F 92% 29.86 in 9.0 mi NNW 6.9 mph - N/A   Overcast
8:39 PM 33.8 °F 27.7 °F 32.0 °F 93% 29.86 in 10.0 mi NNW 6.9 mph - 0.00 in   Overcast
8:53 PM 34.0 °F 28.8 °F 32.0 °F 92% 29.86 in 10.0 mi NW 5.8 mph - 0.00 in   Overcast
9:53 PM 34.0 °F 26.6 °F 32.0 °F 92% 29.89 in 10.0 mi WNW 9.2 mph - N/A   Overcast
10:06 PM 33.8 °F 27.0 °F 32.0 °F 93% 29.90 in 10.0 mi NW 8.1 mph - N/A   Overcast
10:53 PM 34.0 °F 27.2 °F 30.9 °F 89% 29.91 in 10.0 mi WNW 8.1 mph - N/A   Overcast
11:53 PM 34.0 °F 25.0 °F 28.0 °F 79% 29.93 in 10.0 mi WNW 12.7 mph - N/A   Overcast